This demonstration page uses our WeatherBlox Daily Observations layout. Learn more.

Left ArrowRight Arrow

38.80484, -77.04692

Hourly Observations for February 6, 2020

Temp ( °F °C ) Dew Point ( °F °C ) Humidity (%) Winds ( mph kmh ) Pressure ( in mb ) Visibility ( mi km ) Precip ( " mm )
12:18 am 00:18 Cloudy with Mist and Fog 39 3.9 38 3.3 96 96 NNE 5 7 29.89 1012 3 4 0.01 0.25
12:28 am 00:28 Cloudy with Mist and Fog 39 3.9 38 3.3 96 96 NNE 6 9 29.89 1012 3 4 0.01 0.25
12:38 am 00:38 Cloudy with Mist and Fog 39 3.9 38 3.3 96 96 NE 5 7 29.88 1012 3 4 0.01 0.25
12:40 am 00:40 Cloudy with Mist and Fog 39 3.9 38 3.3 96 96 NNE 5 7 29.89 1012 3 5 0.01 0.25
12:52 am 00:52 Cloudy with Mist and Fog 39 3.9 38 3.3 96 96 NNE 3 6 29.88 1012 3 5 0.01 0.25
1:04 am 01:04 Cloudy with Mist and Fog 39 3.9 38 3.3 96 96 NNE 7 11 29.87 1012 3 4 0.00 0.00
1:52 am 01:52 Cloudy with Mist and Fog 39 3.9 38 3.3 96 96 N 5 7 29.86 1011 3 4 0.00 0.00
2:36 am 02:36 Cloudy with Mist and Fog 39 3.9 38 3.3 96 96 NNW 5 7 29.84 1011 3 4 0.00 0.00
2:52 am 02:52 Cloudy with Mist and Fog 39 3.9 38 3.3 96 96 NNW 7 11 29.83 1010 3 4 0.00 0.00
3:38 am 03:38 Cloudy with Mist and Fog 39 3.9 39 3.9 100 100 N 3 6 29.79 1009 3 5 0.00 0.00
3:52 am 03:52 Cloudy with Mist and Fog 39 3.9 39 3.9 100 100 Calm 29.76 1008 4 6 0.00 0.00
4:52 am 04:52 Cloudy with Light Rain 40 4.4 38 3.3 93 93 SSE 8 13 29.71 1006 8 13 0.00 0.00
5:11 am 05:11 Mostly Cloudy 40 4.4 38 3.3 93 93 SSE 8 13 29.70 1006 9 14 0.01 0.25
5:27 am 05:27 Cloudy 40 4.4 38 3.3 93 93 S 10 17 29.69 1005 10 16 0.01 0.25
5:52 am 05:52 Cloudy 40 4.4 38 3.3 93 93 ESE 5 7 29.67 1005 10 16 0.01 0.25
6:52 am 06:52 Cloudy 41 5 39 3.9 93 93 S 8 13 29.67 1005 10 16 0.00 0.00
7:46 am 07:46 Cloudy 41 5 39 4 93 93 W 6 9 29.70 1006 10 16 0.00 0.00
7:52 am 07:52 Cloudy 41 5 39 3.9 93 93 SW 5 7 29.70 1006 10 16 0.00 0.00
8:52 am 08:52 Cloudy 41 5 39 3.9 93 93 S 6 9 29.68 1005 10 16 0.00 0.00
9:01 am 09:01 Cloudy 41 5 39 3.9 93 93 SSW 6 9 29.69 1005 10 16 0.00 0.00
9:09 am 09:09 Cloudy 41 5 39 3.9 93 93 SSW 6 9 29.68 1005 10 16 0.00 0.00
9:30 am 09:30 Cloudy with Light Rain 41 5 39 3.9 93 93 S 8 13 29.68 1005 10 16 0.00 0.00
9:52 am 09:52 Cloudy with Light Rain 41 5 40 4.4 96 96 SSW 6 9 29.67 1005 9 14 0.00 0.00
10:52 am 10:52 Cloudy with Light Rain 42 5.6 40 4.4 92 92 S 6 9 29.64 1004 7 11 0.01 0.25
11:52 am 11:52 Cloudy with Light Rain 42 5.6 41 5 96 96 S 12 19 29.60 1002 6 10 0.04 1.02
12:52 pm 12:52 Cloudy with Light Rain 43 6.1 41 5 93 93 SW 3 6 29.55 1001 5 8 0.14 3.56
1:52 pm 13:52 Cloudy with Light Rain 43 6.1 42 5.6 97 97 Calm 29.49 999 5 8 0.08 2.03
2:45 pm 14:45 Cloudy with Rain 43 6.1 42 5.6 97 97 S 5 7 29.49 999 3 4 0.15 3.81
2:49 pm 14:49 Cloudy with Rain 43 6 43 6 100 100 SSE 3 6 29.48 998 3 5 0.17 4.32
2:52 pm 14:52 Cloudy with Rain 43 6.1 42 5.6 97 97 SSE 6 9 29.48 998 3 5 0.18 4.57
2:55 pm 14:55 Cloudy with Rain 43 6.1 42 5.6 97 97 S 6 9 29.48 998 3 5 0.01 0.25
3:14 pm 15:14 Cloudy with Light Rain 44 6.7 43 6.1 96 96 Calm 29.46 998 4 6 0.05 1.27
3:28 pm 15:28 Cloudy with Rain 44 6.7 43 6.1 96 96 SSE 5 7 29.44 997 4 6 0.08 2.03
3:46 pm 15:46 Cloudy with Light Rain 45 7 43 6 93 93 SE 8 13 29.40 996 6 10 0.10 2.54
3:52 pm 15:52 Cloudy with Light Rain 44 6.7 43 6.1 96 96 Calm 29.41 996 7 11 0.11 2.79
3:58 pm 15:58 Cloudy with Light Rain 45 7.2 44 6.7 97 97 N 7 11 29.39 995 6 10 0.00 0.00
4:10 pm 16:10 Cloudy with Light Rain 45 7.2 43 6.1 93 93 N 6 9 29.39 995 7 11 0.01 0.25
4:52 pm 16:52 Cloudy with Light Rain 46 7.8 44 6.7 93 93 N 10 17 29.41 996 10 16 0.02 0.51
5:52 pm 17:52 Cloudy with Light Rain 46 7.8 44 6.7 93 93 NNE 7 11 29.45 997 10 16 0.01 0.25
6:39 pm 18:39 Cloudy with Light Rain 45 7.2 44 6.7 97 97 NE 6 9 29.49 999 6 10 0.01 0.25
6:52 pm 18:52 Cloudy with Rain 45 7.2 44 6.7 97 97 ENE 7 11 29.47 998 4 6 0.02 0.51
7:07 pm 19:07 Cloudy with Light Rain 45 7.2 44 6.7 97 97 ENE 7 11 29.47 998 4 6 0.03 0.76
7:16 pm 19:16 Cloudy with Light Rain 45 7.2 44 6.7 97 97 ENE 8 13 29.47 998 5 8 0.04 1.02
7:24 pm 19:24 Cloudy with Light Rain 45 7.2 43 6.1 93 93 ENE 8 13 29.47 998 6 10 0.05 1.27
7:41 pm 19:41 Cloudy with Light Rain 45 7.2 44 6.7 97 97 ENE 7 11 29.46 998 7 11 0.06 1.52
7:52 pm 19:52 Cloudy with Light Rain 45 7.2 43 6.1 93 93 ESE 12 19 29.41 996 7 11 0.07 1.78
7:59 pm 19:59 Cloudy with Light Rain 45 7.2 43 6.1 93 93 SE 9 15 29.42 996 9 14 0.00 0.00
8:04 pm 20:04 Cloudy with Light Rain 45 7.2 44 6.7 97 97 SE 7 11 29.41 996 10 16 0.00 0.00
8:16 pm 20:16 Cloudy with Light Rain 45 7.2 43 6.1 93 93 SSE 8 13 29.41 996 10 16 0.01 0.25
8:24 pm 20:24 Cloudy with Light Rain 46 7.8 44 6.7 93 93 Calm 29.42 996 10 16 0.01 0.25
8:52 pm 20:52 Cloudy with Light Rain 46 7.8 44 6.7 93 93 NW 5 7 29.46 998 10 16 0.02 0.51
9:52 pm 21:52 Cloudy with Light Rain 45 7.2 44 6.7 97 97 SE 5 7 29.41 996 10 16 0.01 0.25
10:52 pm 22:52 Cloudy with Light Rain 47 8.3 46 7.8 97 97 W 3 6 29.39 995 10 16 0.01 0.25
11:52 pm 23:52 Cloudy with Light Rain 47 8.3 46 7.8 97 97 S 6 9 29.38 995 5 8 0.04 1.02

Powered by AerisWeather